Location: Butte
(46.0040°N, 112.5340°W)
Time: 08:04:16
(UTC-06:00)

Daily predictions for brighter satellites

Satellite Brightness Start Highest point End
(mag) Time Altitude Azimuth Time Altitude Azimuth Time Altitude Azimuth
Cosmos 2333 Rocket 4.2 21:56:54 10° N 22:00:36 17° NE 22:04:17 10° E
Cosmos 968 Rocket 3.5 21:55:27 10° SSW 22:00:39 86° ESE 22:05:55 10° NNE
Meteor 1-21 Rocket 4.3 22:06:33 10° S 22:12:06 88° W 22:17:41 10° N
COSMOS 2428 3.5 22:07:42 10° NNW 22:13:02 39° NE 22:18:21 10° ESE
H-2A R/B 3.0 22:10:46 10° S 22:15:10 50° W 22:19:36 10° NNW
Envisat 3.4 22:12:54 10° S 22:17:57 66° W 22:23:01 10° NNW
ATLAS 5 CENTAUR R/B 3.9 22:16:51 10° WSW 22:21:26 35° NW 22:26:23 10° NNE
DELTA 2 R/B (1) 4.2 22:16:24 10° WSW 22:21:33 40° S 22:26:41 10° ESE
Cosmos 2058 3.7 22:19:25 10° SSE 22:23:05 32° E 22:26:46 10° NNE
Cosmos 2112 Rocket 4.2 22:17:53 10° NNW 22:23:06 65° ENE 22:28:09 11° SSE
SL-23 DEB 4.0 22:18:20 10° WNW 22:23:55 82° SSW 22:27:14 11° ESE
YAOGAN 6 2.6 22:20:49 10° SSE 22:24:27 74° ENE 22:28:05 10° N
Cosmos 405 3.2 22:22:11 10° NNW 22:25:50 77° W 22:29:26 10° S
Cosmos 1437 2.9 22:26:02 10° S 22:29:14 53° E 22:32:28 10° NNE
SPOT 5 3.2 22:26:19 10° S 22:30:47 60° W 22:35:33 10° NNW
Cosmos 2219 Rocket 3.4 22:28:28 10° N 22:33:23 30° NE 22:38:17 10° ESE
Cosmos 1777 Rocket 4.2 22:29:35 10° SSW 22:34:52 80° WNW 22:40:09 10° NNE
ARGOS 3.2 22:37:20 11° SSE 22:42:33 80° ENE 22:47:59 10° NNW
SL-14 R/B 4.0 22:40:46 14° SSE 22:43:41 35° E 22:47:21 10° NNE
H-2A R/B 2.7 22:41:19 14° SE 22:45:42 46° ENE 22:50:53 10° N
Cosmos 1271 Rocket 3.8 22:44:15 10° N 22:47:41 31° ENE 22:50:04 16° SE
Meteor 1-27 4.3 22:44:20 10° N 22:50:04 72° ENE 22:54:52 14° SSE
SL-08 RB Rocket 3.6 22:46:47 14° SSE 22:50:38 80° ENE 22:55:08 10° N
Cosmos 2242 Rocket 4.2 22:46:41 10° N 22:50:57 43° ENE 22:54:03 17° SE
Cosmos 2219 3.3 22:46:29 10° S 22:52:06 58° ESE 22:57:45 10° NNE
ATLAS 3B R/B 4.2 22:48:00 10° NNW 22:54:15 30° NNE 23:00:09 10° E
Cosmos 1726 2.3 22:50:52 10° N 22:54:36 58° E 22:57:09 19° SSE
Cosmos 2333 4.4 22:50:15 10° NNW 22:55:56 64° ENE 23:00:23 17° SE
DELTA 2 DEB (DPAF) 4.2 22:53:54 16° SSE 22:57:25 73° ENE 23:01:55 10° N
SPOT 1/Viking Rocket 3.9 22:52:44 10° S 22:57:45 64° WSW 23:02:54 10° NNW
Cosmos 2322 4.3 22:52:16 10° NW 22:57:50 54° WSW 23:02:51 13° S
SAR-Lupe-2 4.4 22:57:06 19° SE 22:59:12 36° ENE 23:02:32 10° N
NOSS 3-1 (C) 3.7 22:54:17 10° S 22:59:52 46° ESE 23:06:01 10° NE
Cosmos 2237 Rocket 3.4 22:55:23 10° NNW 23:00:32 33° NE 23:05:04 13° ESE
AVUM R/B 4.1 22:58:21 10° SW 23:00:35 37° NW 23:03:01 10° NNE
Cosmos 1680 Rocket 4.1 22:55:29 10° NNW 23:00:35 54° WSW 23:05:12 13° S
FALCON 9 R/B 4.4 22:36:06 10° WSW 23:02:35 47° S 23:09:35 11° ESE
Cosmos 2322 Rocket 4.4 22:59:32 10° WNW 23:03:09 18° W 23:06:46 10° SW
Iridium 2 4.5 23:03:48 21° SE 23:05:46 36° E 23:09:20 10° NNE
USA 245 3.8 23:03:51 13° SSW 23:05:50 30° W 23:08:02 10° NW
CZ-4B R/B 4.1 23:06:48 10° N 23:12:03 63° WNW 23:17:12 10° SSW
Cosmos 2360 Rocket 3.2 23:09:16 10° NW 23:14:29 39° WSW 23:19:14 12° S
Cosmos 2150 Rocket 4.2 23:11:47 14° S 23:16:26 57° ESE 23:21:48 10° NNE
CARTOSAT-1 3.5 23:14:27 22° SSE 23:17:13 78° ENE 23:21:33 10° N
Landsat 7 3.9 23:13:55 18° S 23:17:24 79° WSW 23:22:12 10° NNW
Cosmos 1898 Rocket 3.6 23:13:30 15° S 23:17:41 56° ESE 23:22:46 10° NNE
DMSP B5D2-2 4.2 23:14:39 10° NNE 23:19:49 55° E 23:23:22 20° S
Meteor 1-11 4.3 23:16:12 10° SSW 23:21:59 83° W 23:27:46 10° N
Cosmos 1633 Rocket 3.0 23:19:19 17° S 23:22:41 86° E 23:27:05 10° N
Sich 1 3.0 23:19:29 16° S 23:23:02 89° WNW 23:27:28 10° N
Spot 4 3.9 23:23:43 23° SSE 23:26:43 73° ENE 23:31:35 10° N
Cosmos 292 Rocket 3.7 23:25:25 10° NNW 23:30:13 86° ENE 23:32:54 26° SSE
Meteor 1-4 Rocket 2.7 23:27:15 10° NNW 23:31:02 75° W 23:32:55 28° S
Cosmos 1300 4.0 23:29:00 10° NNW 23:32:33 36° W 23:35:15 15° SSW
Terra 1.9 23:30:16 23° S 23:33:15 78° WSW 23:38:03 10° NNW
Cosmos 1626 2.8 23:34:25 31° SE 23:35:33 39° E 23:39:05 10° NNE
Cosmos 1346 3.7 23:36:18 35° ESE 23:36:35 36° E 23:39:26 10° NNE
Meteor 2-10 4.2 23:31:31 10° NNW 23:37:14 89° W 23:40:53 24° S
SeaSat 1 3.1 23:38:15 21° ESE 23:41:19 48° NE 23:46:04 10° NNW
Cosmos 2227 Rocket 2.7 23:39:32 25° SSE 23:42:07 39° ESE 23:47:21 10° NE
USA 32 4.4 23:38:10 10° NNW 23:43:22 63° W 23:47:02 20° SSW
Cosmos 2333 Rocket 2.3 23:40:06 10° NNW 23:45:53 77° ENE 23:49:11 27° SE
Spot 2 4.4 23:41:19 10° NNE 23:46:31 82° ESE 23:49:48 22° S
Cosmos 1869 3.5 23:43:29 10° N 23:47:30 61° E 23:49:01 35° SE
Lacrosse 4 Rocket 3.3 23:44:11 10° N 23:47:51 25° NE 23:50:55 13° E
SL-16 R/B 3.2 23:46:30 10° NNW 23:51:46 37° NE 23:55:33 18° ESE
BREEZE-M DEB (TANK) 4.1 23:36:18 10° W 23:52:25 69° N 23:56:30 10° E
Nadezhda 1 Rocket 4.0 23:47:11 10° N 23:53:17 81° W 23:57:05 25° S
Cosmos 1455 2.1 23:51:51 10° N 23:55:40 86° W 23:56:59 40° S
